DW7322 Weather Reports


Display with metric or nautical units.
time (UTC)temp
F
wind
direction
speed
MPH
gust
MPH
rain 1hr
in
rain 24hr
in
rain mn
in
humidity
%
barometer
mb
20260831134508 71 172 0.0 0.0 0.00 0.07 0.01 88 1014.2
20260831133034 71 118 0.0 0.0 0.00 0.07 0.01 88 1014.3
20260831131554 70 134 0.0 0.0 0.00 0.07 0.01 88 1014.3
20260831130120 70 238 0.0 0.0 0.00 0.11 0.01 89 1014.1
20260831124522 70 152 0.0 0.0 0.01 0.11 0.01 89 1014.1
20260831123040 69 209 0.0 0.0 0.01 0.11 0.01 90 1014.1
20260831121558 69 224 0.0 0.0 0.01 0.11 0.01 91 1014.1
20260831120117 69 212 0.0 0.0 0.01 0.14 0.01 90 1014.0
20260831114510 69 238 0.0 0.0 0.00 0.13 0.00 90 1013.7
20260831113034 69 238 0.0 0.0 0.00 0.13 0.00 90 1013.6
20260831111545 69 238 0.0 0.0 0.00 0.13 0.00 90 1013.4
20260831110113 69 239 0.0 0.0 0.00 0.14 0.13 89 1013.3
20260831104610 70 210 0.0 1.0 0.00 0.14 0.13 88 1013.4
20260831104511 70 210 0.0 1.0 0.00 0.14 0.13 88 1013.4
20260831103024 70 204 0.0 0.0 0.00 0.14 0.13 88 1013.5
20260831101556 70 139 0.0 0.0 0.00 0.14 0.13 89 1013.4
20260831100129 70 138 0.0 0.0 0.00 0.14 0.13 90 1013.5
20260831094504 70 138 0.0 0.0 0.00 0.14 0.13 90 1013.4
20260831093031 70 192 0.0 0.0 0.00 0.14 0.13 90 1013.4
20260831091542 70 192 0.0 0.0 0.00 0.14 0.13 90 1013.5
20260831090104 70 199 0.0 0.0 0.00 0.14 0.13 90 1013.5
20260831084604 70 199 0.0 0.0 0.00 0.14 0.13 91 1013.5
20260831084505 70 198 0.0 0.0 0.00 0.14 0.13 91 1013.5
20260831083039 70 198 0.0 0.0 0.00 0.14 0.13 91 1013.4
20260831081554 70 198 0.0 0.0 0.00 0.14 0.13 92 1013.5
20260831080113 70 199 0.0 0.0 0.00 0.14 0.13 92 1013.4
20260831074516 70 199 0.0 0.0 0.00 0.14 0.13 92 1013.5
20260831073034 70 198 0.0 0.0 0.00 0.14 0.13 92 1013.7
20260831071553 70 199 0.0 0.0 0.00 0.14 0.13 92 1014.0
20260831070120 70 198 0.0 0.0 0.00 0.14 0.13 92 1014.0
20260831064519 71 198 0.0 0.0 0.00 0.14 0.13 92 1013.9
20260831063041 71 199 0.0 0.0 0.00 0.14 0.13 92 1013.9
20260831061504 71 199 0.0 0.0 0.00 0.14 0.13 92 1013.8
20260831060004 71 199 0.0 0.0 0.00 0.14 0.13 92 1013.9
20260831054525 72 199 0.0 0.0 0.00 0.14 0.13 93 1014.0
20260831053038 72 198 0.0 0.0 0.00 0.14 0.13 93 1013.9
20260831051508 72 147 0.0 0.0 0.00 0.14 0.13 93 1013.9
20260831050123 72 148 0.0 0.0 0.00 0.14 0.13 93 1014.0
20260831044519 72 148 0.0 0.0 0.00 0.14 0.13 94 1014.1
20260831043029 72 148 0.0 0.0 0.00 0.14 0.13 94 1014.3
20260831041603 72 147 0.0 0.0 0.00 0.14 0.13 94 1014.4
20260831040113 72 147 0.0 0.0 0.00 0.14 0.13 94 1014.5
20260831034517 72 147 0.0 0.0 0.00 0.14 0.13 94 1014.7
20260831033034 72 155 0.0 0.0 0.00 0.14 0.13 95 1014.6
20260831031552 72 195 0.0 0.0 0.01 0.14 0.13 95 1014.9
20260831031504 72 195 0.0 0.0 0.01 0.14 0.13 95 1015.0
20260831030119 72 195 0.0 0.0 0.01 0.14 0.13 94 1015.2
20260831024519 72 195 0.0 0.0 0.01 0.14 0.13 94 1015.4
20260831023036 72 195 0.0 0.0 0.01 0.14 0.13 94 1015.1
20260831021603 72 236 0.0 0.0 0.00 0.13 0.12 94 1015.4
20260831021503 72 236 0.0 0.0 0.01 0.13 0.12 94 1015.3
20260831020122 72 236 0.0 0.0 0.01 0.13 0.12 94 1015.2
20260831014534 72 235 0.0 0.0 0.01 0.13 0.12 94 1015.1
20260831013053 72 236 0.0 0.0 0.01 0.13 0.12 94 1015.3
20260831011521 72 236 0.0 0.0 0.00 0.12 0.11 93 1015.0
20260831010022 72 235 0.0 0.0 0.00 0.12 0.11 93 1014.8
20260831004540 72 236 0.0 0.0 0.00 0.12 0.11 93 1015.0
20260831003004 73 236 0.0 0.0 0.00 0.12 0.11 92 1014.6
20260831001524 73 236 0.0 0.0 0.00 0.12 0.11 92 1014.5
20260831000048 73 213 0.0 0.0 0.00 0.12 0.11 93 1014.4
20260830234544 73 131 0.0 0.0 0.00 0.12 0.11 93 1014.6
20260830233107 73 112 0.0 0.0 0.00 0.12 0.11 93 1014.9
20260830231529 73 172 0.0 0.0 0.01 0.12 0.11 92 1014.7
20260830230018 73 196 0.0 0.0 0.01 0.13 0.11 93 1014.7
20260830224541 73 196 0.0 0.0 0.01 0.13 0.11 92 1014.7
20260830223100 73 255 0.0 0.0 0.01 0.13 0.11 92 1014.9
20260830223000 73 255 0.0 0.0 0.01 0.13 0.11 92 1015.0
20260830221524 73 257 0.0 0.0 0.00 0.12 0.10 91 1015.6
20260830220054 74 256 0.0 0.0 0.00 0.12 0.10 91 1015.4
20260830214552 74 257 0.0 0.0 0.00 0.12 0.10 91 1015.4
20260830213010 74 257 0.0 0.0 0.00 0.12 0.10 90 1015.2
20260830211534 75 257 0.0 0.0 0.00 0.12 0.10 91 1015.4
20260830210100 75 257 0.0 0.0 0.00 0.12 0.10 89 1015.3
20260830204544 75 257 0.0 0.0 0.01 0.12 0.10 89 1015.2
20260830203010 74 257 0.0 0.0 0.01 0.12 0.10 90 1015.3
20260830201530 74 257 0.0 0.0 0.02 0.12 0.10 91 1015.3
20260830200025 73 238 0.0 0.0 0.03 0.12 0.10 92 1015.4
20260830194545 73 238 0.0 0.0 0.02 0.11 0.09 90 1015.4
20260830193008 74 238 0.0 0.0 0.02 0.11 0.09 89 1015.5
20260830191532 74 238 0.0 0.0 0.01 0.10 0.08 88 1015.4
20260830190054 75 238 0.0 0.0 0.00 0.09 0.07 87 1015.1
20260830184549 75 238 0.0 0.0 0.00 0.09 0.07 86 1015.1
20260830183012 78 238 0.0 0.0 0.00 0.09 0.07 79 1014.7
20260830181532 80 236 0.0 1.0 0.00 0.09 0.07 75 1014.6
20260830180057 81 258 0.0 0.0 0.00 0.09 0.07 73 1014.1
20260830174551 82 236 0.0 1.0 0.00 0.09 0.07 71 1013.9
20260830173055 81 218 0.0 0.0 0.00 0.09 0.07 72 1014.1
20260830173004 81 218 0.0 0.0 0.00 0.09 0.07 72 1014.2
20260830171520 80 248 0.0 0.0 0.00 0.09 0.07 74 1014.5
20260830170039 79 262 0.0 0.0 0.00 0.09 0.07 77 1014.6
20260830164548 77 217 0.0 0.0 0.00 0.09 0.07 79 1014.7
20260830163047 77 228 0.0 1.0 0.00 0.09 0.07 79 1014.5
20260830161512 77 204 0.0 1.0 0.00 0.09 0.07 79 1014.7
20260830160005 76 226 0.0 0.0 0.00 0.09 0.07 80 1014.8
20260830154528 75 239 0.0 1.0 0.00 0.09 0.07 83 1014.7
20260830153045 75 294 0.0 0.0 0.00 0.09 0.07 83 1014.6
20260830151510 75 236 0.0 0.0 0.00 0.09 0.07 83 1014.7
20260830150006 74 217 0.0 2.0 0.00 0.09 0.07 86 1014.5
20260830144515 72 238 0.0 0.0 0.00 0.09 0.07 90 1014.3
20260830143034 70 260 0.0 1.0 0.00 0.09 0.07 92 1014.6
20260830141542 69 224 0.0 1.0 0.00 0.09 0.07 94 1014.8
20260830140100 69 98 0.0 0.0 0.00 0.09 0.07 94 1015.2